Rolla, MO

7:50 PM CST on December 12, 2017 (GMT -0600)
Rolla National

Weather History for KVIH - October, 2012

Change the Weather History Date:

Saturday, October 6, 2012

  Actual Average Record
Temperature  
Mean Temperature 39 °F 60 °F  
Max Temperature 44 °F 71 °F 88 °F (1963)
Min Temperature 34 °F 49 °F 33 °F (1952)
Degree Days  
Heating Degree Days 26 7  
Month to date heating degree days 67 36  
Since 1 July heating degree days 149 100  
Cooling Degree Days 0 1  
Month to date cooling degree days 0 9  
Year to date cooling degree days 1666 1227  
Moisture  
Dew Point 35 °F    
Average Humidity 81    
Maximum Humidity 92    
Minimum Humidity 70    
Precipitation  
Precipitation T in 0.11 in 1.14 in (1948)
Month to date precipitation 0.80 0.71  
Year to date precipitation 27.36 34.30  
Sea Level Pressure  
Sea Level Pressure 30.25 in    
Wind  
Wind Speed 5 mph (WNW)    
Max Wind Speed 12 mph    
Max Gust Speed 23 mph    
Visibility 10 miles    
Events      
T = Trace of Precipitation, MM = Missing Value Source: NWS Daily Summary

Daily Weather History Graph

Daily Weather History Graph

Search for Another Location

Airport or City:

Trip Planner

Search our weather history database for the weather conditions in past years. The results will help you decide how hot, cold, wet, or windy it might be!

Date:

Astronomy

Oct. 06, 2012 Rise Set
Actual Time 7:07 AM CDT 6:41 PM CDT
Civil Twilight 6:41 AM CDT 7:07 PM CDT
Nautical Twilight 6:10 AM CDT 7:38 PM CDT
Astronomical Twilight 5:40 AM CDT 8:09 PM CDT
Moon 11:01 PM CDT (10/6) 12:58 PM CDT (10/6)
Length of Visible Light 12h 26m
Length of Day
11h 33m
Waning Gibbous, 65% of the Moon is Illuminated
Oct 6
Waning Gibbous
Oct 8
Last Quarter
Oct 15
New
Oct 21
First Quarter
Oct 29
Full

Hourly Weather History & Observations

Time (CDT) Temp. Windchill Dew Point Humidity Pressure Visibility Wind Dir Wind Speed Gust Speed Precip Events Conditions
12:53 AM 36.0 °F 30.3 °F 34.0 °F 93% 30.24 in 10.0 mi NW 6.9 mph - N/A   Clear
1:53 AM 35.1 °F 30.1 °F 33.1 °F 92% 30.25 in 10.0 mi NNW 5.8 mph - N/A   Clear
2:53 AM 36.0 °F 31.1 °F 33.1 °F 89% 30.24 in 10.0 mi NW 5.8 mph - N/A   Clear
3:53 AM 36.0 °F 31.1 °F 33.1 °F 89% 30.25 in 10.0 mi NW 5.8 mph - N/A   Clear
4:53 AM 35.1 °F 30.1 °F 32.0 °F 89% 30.25 in 10.0 mi NW 5.8 mph - N/A   Clear
5:53 AM 36.0 °F 30.3 °F 33.1 °F 89% 30.23 in 10.0 mi North 6.9 mph - N/A   Clear
6:53 AM 37.0 °F 31.6 °F 33.1 °F 86% 30.23 in 10.0 mi North 6.9 mph - N/A   Clear
7:53 AM 37.0 °F - 34.0 °F 89% 30.25 in 10.0 mi Calm Calm - N/A   Clear
8:53 AM 39.0 °F 36.8 °F 33.1 °F 79% 30.26 in 10.0 mi North 3.5 mph - N/A   Overcast
9:53 AM 41.0 °F 39.0 °F 33.1 °F 73% 30.28 in 10.0 mi NE 3.5 mph - N/A   Overcast
10:53 AM 42.1 °F - 33.1 °F 70% 30.27 in 10.0 mi Calm Calm - N/A   Overcast
11:35 AM 41.0 °F 38.0 °F 37.4 °F 87% 30.26 in 10.0 mi WNW 4.6 mph - N/A   Overcast
11:53 AM 41.0 °F 39.0 °F 37.0 °F 86% 30.28 in 10.0 mi West 3.5 mph - N/A   Overcast
12:53 PM 42.1 °F 40.2 °F 36.0 °F 79% 30.28 in 10.0 mi NW 3.5 mph - N/A   Overcast
1:53 PM 44.1 °F 41.5 °F 37.0 °F 76% 30.26 in 10.0 mi West 4.6 mph - N/A   Overcast
2:53 PM 44.1 °F 40.8 °F 35.1 °F 71% 30.26 in 10.0 mi West 5.8 mph - N/A   Overcast
3:53 PM 43.0 °F 38.8 °F 37.9 °F 82% 30.25 in 10.0 mi WSW 6.9 mph - 0.00 in   Overcast
4:53 PM 42.1 °F 37.7 °F 35.1 °F 76% 30.23 in 10.0 mi SW 6.9 mph - N/A   Overcast
5:53 PM 41.0 °F 37.1 °F 36.0 °F 82% 30.22 in 10.0 mi WSW 5.8 mph - N/A   Overcast
6:53 PM 39.9 °F 35.8 °F 37.9 °F 93% 30.24 in 10.0 mi SW 5.8 mph - N/A   Mostly Cloudy
7:53 PM 41.0 °F 39.0 °F 37.0 °F 86% 30.25 in 10.0 mi West 3.5 mph - N/A   Overcast
8:53 PM 41.0 °F 38.0 °F 35.1 °F 79% 30.27 in 10.0 mi WNW 4.6 mph - N/A   Overcast
9:53 PM 39.0 °F 34.8 °F 34.0 °F 82% 30.27 in 10.0 mi NW 5.8 mph - N/A   Partly Cloudy
10:53 PM 37.9 °F 35.5 °F 33.1 °F 83% 30.27 in 10.0 mi NNW 3.5 mph - N/A   Partly Cloudy
11:53 PM 37.9 °F - 34.0 °F 86% 30.26 in 10.0 mi Calm Calm - N/A   Overcast